Hourly Data Report for June 11, 2012

All times are specified in Local Standard Time (LST). Add 1 hour to adjust for Daylight Saving Time where and when it is observed.

SAINT JOHN A
NEW BRUNSWICK

45°18'58.000" N
65°53'24.000" W
108.80 m
8104901
71609
YSJ

Download Data

Hourly Data (June 2012)
Hourly Data Report for June 11, 2012
Temp Definition
°C
Dew Point Temp Definition
°C
Rel Hum Definition
%
Wind Dir Definition
10's deg

Wind Spd Definition
km/h
Visibility Definition
km
Stn Press Definition
kPa
Hmdx Definition


Wind Chill Definition


Weather Definition


TIME
00:00 7.7 7.1 96 5 6 10.0 101.17     LegendNANA
01:00 8.0 7.9 99   0 10.0 101.16     LegendNANA
02:00 6.1 6.0 99   0 10.0 101.18     Fog
03:00 5.3 5.2 99   0 3.2 101.21     Fog
04:00 5.6 5.6 100 7 4 0.8 101.24     Fog
05:00 6.8 6.8 100 4 5 0.4 101.29     Fog
06:00 8.9 8.9 100 1 8 0.4 101.33     Fog
07:00 9.9 9.9 100 36 8 1.2 101.37     Fog
08:00 12.2 11.6 96 1 5 10.0 101.39     Mainly Clear
09:00 15.6 11.6 77 32 7 10.0 101.38     LegendNANA
10:00 17.2 11.5 69 29 8 10.0 101.36     LegendNANA
11:00 19.5 12.6 64 28 5 10.0 101.36     Mostly Cloudy
12:00 20.2 12.3 60 12 11 10.0 101.33     LegendNANA
13:00 20.7 9.1 47 13 18 10.0 101.27     LegendNANA
14:00 21.1 8.2 43 18 16 10.0 101.23     Mostly Cloudy
15:00 20.7 8.8 46 20 17 10.0 101.17     LegendNANA
16:00 19.4 7.3 45 21 15 10.0 101.13     LegendNANA
17:00 19.5 8.6 49 24 16 10.0 101.11     Mostly Cloudy
18:00 17.4 10.6 64 23 15 10.0 101.10     LegendNANA
19:00 16.1 10.9 71 20 14 10.0 101.10     LegendNANA
20:00 12.8 10.2 84 19 14 10.0 101.10     Mainly Clear
21:00 10.7 9.8 94 19 11 10.0 101.12     LegendNANA
22:00 9.7 9.1 96 18 9 10.0 101.12     LegendNANA
23:00 9.8 9.7 99 18 13 3.2 101.05     Fog

Notes on Data Quality.

Legend

  • E = Estimated
  • M = Missing
  • NA = Not Available
Date modified: